QPF
0.00 0.00 0.00 0.00 0.00 0.00 0.00 0.00 0.00 0.00 0.00 0.00 0.00 0.00 0.00 0.00 0.00 0.00 0.00 0.00 0.00 0.00 0.00 0.00 0.00 0.00 0.00 0.00 0.00 0.00 0.00 0.00 0.00 0.00 0.00 0.00 0.00 0.00 0.00 0.00 0.00 0.00 0.00 0.00 0.00
0.00 0.00 0.00 0.00 0.00 0.00 0.00 0.00 0.00 0.00 0.00 0.00 0.00 0.00 0.00 0.00 0.00 0.00 0.00 0.00 0.00 0.00 0.00 0.00 0.00 0.00 0.00 0.00 0.00 0.00 0.00 0.00 0.00 0.00 0.00 0.00 0.00 0.00 0.00 0.00 0.00 0.00 0.00 0.00 0.00
0.00 0.00 0.00 0.00 0.00 0.00 0.00 0.00 0.00 0.00 0.00 0.00 0.00 0.00 0.00 0.00 0.00 0.00 0.00 0.00 0.00 0.00 0.00 0.00 0.00 0.00 0.00 0.00 0.00 0.00 0.00 0.00 0.00 0.00 0.00 0.00 0.00 0.00 0.00 0.00 0.00 0.00 0.00 0.00 0.00
0.00 0.00 0.00 0.00 0.00 0.00 0.00 0.00 0.00 0.00 0.00 0.00 0.00 0.00 0.00 0.00 0.00 0.00 0.00 0.00 0.00 0.00 0.00 0.00 0.00 0.00 0.00 0.00 0.00 0.00 0.00 0.00 0.00 0.00 0.00 0.00 0.00 0.00 0.00 0.00 0.00 0.00 0.00 0.00 0.00
0.00 0.00 0.00 0.00 0.00 0.00 0.00 0.00 0.00 0.00 0.00 0.00 0.00 0.00 0.00 0.00 0.00 0.00 0.00 0.00 0.00 0.00 0.00 0.00 0.00 0.00 0.00 0.00 0.00 0.00 0.00 0.00 0.00 0.00 0.00 0.00 0.00 0.00 0.00 0.00 0.00 0.00 0.00 0.00 0.00
0.00 0.00 0.00 0.00 0.00 0.00 0.00 0.00 0.00 0.00 0.00 0.00 0.00 0.00 0.00 0.00 0.00 0.00 0.00 0.00 0.00 0.00 0.00 0.00 0.00 0.00 0.00 0.00 0.00 0.00 0.00 0.00 0.00 0.00 0.00 0.00 0.00 0.00 0.00 0.00 0.00 0.01 0.00 0.00 0.01
0.00 0.00 0.00 0.00 0.00 0.00 0.00 0.00 0.00 0.00 0.00 0.00 0.00 0.00 0.00 0.00 0.00 0.00 0.00 0.00 0.00 0.00 0.00 0.00 0.00 0.00 0.00 0.00 0.00 0.00 0.00 0.00 0.00 0.00 0.00 0.00 0.01 0.00 0.00 0.00 0.00 0.00 0.00 0.01 0.00
0.00 0.00 0.00 0.00 0.00 0.00 0.00 0.00 0.00 0.00 0.00 0.00 0.00 0.00 0.00 0.00 0.00 0.00 0.00 0.00 0.00 0.00 0.00 0.00 0.00 0.00 0.00 0.00 0.00 0.00 0.00 0.00 0.00 0.00 0.00 0.01 0.07 0.00 0.00 0.00 0.00 0.00 0.00 0.00 0.00
0.00 0.00 0.00 0.00 0.00 0.00 0.00 0.00 0.00 0.00 0.00 0.00 0.00 0.00 0.00 0.00 0.00 0.00 0.00 0.00 0.00 0.00 0.00 0.00 0.00 0.00 0.00 0.00 0.00 0.00 0.00 0.00 0.00 0.00 0.00 0.00 0.01 0.00 0.00 0.00 0.00 0.00 0.00 0.00 0.00
0.00 0.00 0.00 0.00 0.00 0.00 0.00 0.00 0.00 0.00 0.00 0.00 0.00 0.00 0.00 0.00 0.00 0.00 0.00 0.00 0.00 0.00 0.00 0.00 0.00 0.00 0.00 0.00 0.00 0.00 0.00 0.00 0.00 0.00 0.00 0.00 0.00 0.00 0.00 0.00 0.00 0.00 0.00 0.00 0.00
0.00 0.00 0.00 0.00 0.00 0.00 0.00 0.00 0.00 0.00 0.00 0.00 0.00 0.00 0.00 0.00 0.00 0.00 0.00 0.00 0.00 0.00 0.00 0.00 0.00 0.00 0.00 0.00 0.00 0.00 0.00 0.00 0.00 0.00 0.00 0.00 0.00 0.00 0.00 0.00 0.00 0.00 0.00 0.00 0.00
0.00 0.00 0.00 0.00 0.00 0.00 0.00 0.00 0.00 0.00 0.00 0.00 0.00 0.00 0.00 0.00 0.00 0.00 0.00 0.00 0.00 0.00 0.00 0.00 0.00 0.00 0.00 0.00 0.00 0.00 0.00 0.00 0.00 0.00 0.00 0.00 0.00 0.00 0.00 0.00 0.00 0.00 0.00 0.00 0.00
0.00 0.00 0.00 0.00 0.00 0.00 0.00 0.00 0.00 0.00 0.00 0.00 0.00 0.00 0.00 0.00 0.00 0.00 0.00 0.00 0.00 0.00 0.00 0.00 0.00 0.00 0.00 0.00 0.00 0.00 0.00 0.00 0.00 0.00 0.00 0.00 0.01 0.00 0.00 0.00 0.00 0.00 0.00 0.00 0.00
0.00 0.00 0.00 0.00 0.00 0.00 0.00 0.00 0.00 0.00 0.00 0.00 0.00 0.00 0.00 0.00 0.00 0.00 0.00 0.00 0.00 0.00 0.00 0.00 0.00 0.00 0.00 0.00 0.00 0.00 0.00 0.00 0.00 0.00 0.00 0.00 0.02 0.00 0.00 0.00 0.00 0.00 0.00 0.00 0.00
0.00 0.00 0.00 0.00 0.00 0.00 0.00 0.00 0.00 0.00 0.00 0.00 0.00 0.00 0.00 0.00 0.00 0.00 0.00 0.00 0.00 0.00 0.00 0.00 0.00 0.00 0.00 0.00 0.00 0.00 0.00 0.00 0.00 0.00 0.00 0.00 0.00 0.00 0.01 0.02 0.01 0.01 0.00 0.00 0.00
0.00 0.00 0.00 0.00 0.00 0.00 0.00 0.00 0.00 0.00 0.00 0.00 0.00 0.00 0.00 0.00 0.00 0.00 0.00 0.00 0.00 0.00 0.00 0.00 0.00 0.00 0.00 0.00 0.00 0.00 0.00 0.00 0.00 0.00 0.00 0.00 0.00 0.02 0.03 0.01 0.00 0.02 0.01 0.00 0.00
0.00 0.00 0.00 0.00 0.00 0.00 0.00 0.00 0.00 0.00 0.00 0.00 0.00 0.00 0.00 0.00 0.00 0.00 0.00 0.00 0.00 0.00 0.00 0.00 0.00 0.00 0.00 0.00 0.00 0.00 0.00 0.00 0.00 0.00 0.00 0.00 0.00 0.00 0.00 0.00 0.00 0.02 0.02 0.01 0.00
0.00 0.00 0.00 0.00 0.00 0.00 0.00 0.00 0.00 0.00 0.00 0.00 0.00 0.00 0.00 0.00 0.00 0.00 0.00 0.00 0.00 0.00 0.00 0.00 0.00 0.00 0.00 0.00 0.00 0.00 0.00 0.00 0.00 0.00 0.00 0.00 0.00 0.01 0.00 0.00 0.00 0.00 0.00 0.00 0.00
0.00 0.00 0.00 0.00 0.00 0.00 0.00 0.00 0.00 0.00 0.00 0.00 0.00 0.00 0.00 0.00 0.00 0.00 0.00 0.00 0.00 0.00 0.00 0.00 0.00 0.00 0.00 0.00 0.00 0.00 0.00 0.00 0.00 0.00 0.00 0.00 0.00 0.00 0.00 0.00 0.00 0.00 0.00 0.00 0.00
0.00 0.00 0.00 0.00 0.00 0.00 0.00 0.00 0.00 0.00 0.00 0.00 0.00 0.00 0.00 0.00 0.00 0.00 0.00 0.00 0.00 0.00 0.00 0.00 0.00 0.00 0.00 0.00 0.00 0.00 0.00 0.00 0.00 0.00 0.00 0.00 0.00 0.01 0.00 0.00 0.00 0.00 0.00 0.00 0.00
0.00 0.00 0.00 0.00 0.00 0.00 0.00 0.00 0.00 0.00 0.00 0.00 0.00 0.00 0.00 0.00 0.00 0.00 0.00 0.00 0.00 0.00 0.00 0.00 0.00 0.00 0.00 0.00 0.00 0.00 0.00 0.00 0.00 0.00 0.00 0.00 0.00 0.00 0.00 0.00 0.00 0.00 0.00 0.00 0.00
0.00 0.00 0.00 0.00 0.00 0.00 0.00 0.00 0.00 0.00 0.00 0.00 0.00 0.00 0.00 0.00 0.00 0.00 0.00 0.00 0.00 0.00 0.00 0.00 0.00 0.00 0.00 0.00 0.00 0.00 0.00 0.00 0.00 0.00 0.00 0.00 0.00 0.00 0.00 0.00 0.00 0.00 0.00 0.00 0.00
0.00 0.00 0.00 0.00 0.00 0.00 0.00 0.00 0.00 0.00 0.00 0.00 0.00 0.00 0.00 0.00 0.00 0.00 0.00 0.00 0.00 0.00 0.00 0.00 0.00 0.00 0.00 0.00 0.00 0.00 0.00 0.00 0.00 0.00 0.00 0.00 0.00 0.00 0.00 0.00 0.00 0.00 0.00 0.00 0.00
0.00 0.00 0.00 0.00 0.00 0.00 0.00 0.00 0.00 0.00 0.00 0.00 0.00 0.00 0.00 0.00 0.00 0.00 0.00 0.00 0.00 0.00 0.00 0.00 0.00 0.00 0.00 0.00 0.00 0.00 0.00 0.00 0.00 0.00 0.00 0.00 0.00 0.00 0.00 0.00 0.00 0.00 0.00 0.00 0.00
0.00 0.00 0.00 0.00 0.00 0.00 0.00 0.00 0.00 0.00 0.00 0.00 0.00 0.00 0.00 0.00 0.00 0.00 0.00 0.00 0.00 0.00 0.00 0.00 0.00 0.00 0.00 0.00 0.00 0.00 0.00 0.00 0.00 0.00 0.00 0.00 0.00 0.00 0.00 0.00 0.00 0.00 0.00 0.00 0.00
0.00 0.00 0.00 0.00 0.00 0.00 0.00 0.00 0.00 0.00 0.00 0.00 0.00 0.00 0.00 0.00 0.00 0.00 0.00 0.00 0.00 0.00 0.00 0.00 0.00 0.00 0.00 0.00 0.00 0.00 0.00 0.00 0.00 0.00 0.00 0.00 0.00 0.00 0.00 0.00 0.00 0.00 0.00 0.00 0.00
0.00 0.00 0.00 0.00 0.00 0.00 0.00 0.00 0.00 0.00 0.00 0.00 0.00 0.00 0.00 0.00 0.00 0.00 0.00 0.00 0.00 0.00 0.00 0.00 0.00 0.00 0.00 0.00 0.00 0.00 0.00 0.00 0.00 0.00 0.00 0.00 0.00 0.00 0.00 0.00 0.00 0.00 0.00 0.00 0.00
MSLP
1019.73 1019.18 1018.68 1018.06 1017.73 1017.21 1016.72 1016.14 1015.70 1015.03 1014.64 1014.32 1013.95 1013.52 1013.15 1012.66 1011.78 1011.34 1008.64 1008.13 1007.86 1008.45 1008.58 1007.22 1006.86 1006.17 1005.26 1003.95 1003.72 1002.89 1000.55 999.08 1000.06 1000.11 1000.36 1000.76 1000.20 1000.41 1000.55 1001.16 1002.53 1003.59 1004.50 1004.92 1005.05
1019.47 1019.21 1018.67 1018.11 1017.57 1016.95 1016.45 1015.87 1015.32 1014.75 1014.24 1013.91 1013.66 1013.31 1012.96 1012.60 1010.94 1008.34 1008.37 1008.01 1008.35 1008.55 1007.46 1006.31 1005.58 1005.25 1004.18 1003.19 1002.90 1002.14 1000.10 1000.23 1001.41 1001.41 1001.18 1001.36 1001.67 1001.52 1001.26 1002.52 1002.82 1004.13 1005.14 1005.18 1004.86
1019.79 1019.31 1018.74 1018.19 1017.49 1016.78 1016.28 1015.58 1015.01 1014.34 1013.80 1013.42 1013.33 1013.09 1012.84 1012.41 1009.57 1006.66 1007.84 1008.16 1008.54 1008.56 1006.51 1005.35 1004.70 1004.40 1002.94 1002.58 1002.28 1001.54 1000.82 1001.46 1001.93 1002.41 1001.90 1001.83 1002.51 1003.16 1002.90 1004.04 1004.93 1005.29 1005.36 1005.56 1006.48
1019.59 1019.00 1018.50 1017.82 1017.14 1016.51 1015.78 1015.19 1014.46 1013.96 1013.24 1012.93 1012.98 1012.87 1012.73 1011.43 1007.16 1006.76 1007.77 1008.29 1008.60 1008.12 1006.61 1005.46 1004.48 1003.65 1002.40 1002.18 1002.02 1001.72 1001.91 1002.16 1002.20 1002.23 1002.00 1002.40 1003.39 1004.23 1004.85 1005.87 1006.48 1006.63 1006.68 1006.96 1007.23
1019.37 1018.91 1018.34 1017.67 1016.90 1016.18 1015.59 1014.96 1014.30 1013.58 1012.47 1012.59 1012.64 1012.69 1012.41 1009.08 1005.86 1007.22 1007.78 1008.24 1008.13 1007.52 1005.84 1004.48 1003.74 1002.79 1002.01 1001.63 1002.17 1001.86 1002.02 1002.49 1002.72 1002.71 1002.92 1003.49 1004.14 1004.90 1005.69 1006.37 1007.12 1007.61 1007.77 1008.26 1008.78
1019.38 1018.86 1018.12 1017.45 1016.75 1016.01 1015.28 1014.56 1013.56 1012.61 1012.06 1012.38 1012.33 1012.64 1010.76 1007.08 1005.69 1006.61 1006.68 1007.28 1006.66 1006.04 1005.02 1003.93 1003.14 1002.93 1002.18 1002.03 1002.00 1001.70 1002.34 1002.49 1002.70 1002.79 1003.14 1003.83 1004.42 1005.22 1006.52 1007.46 1008.59 1009.07 1009.46 1010.05 1010.49
1019.38 1018.70 1017.91 1017.03 1016.26 1015.53 1014.87 1013.87 1012.74 1012.20 1011.97 1012.11 1012.08 1011.66 1008.73 1005.89 1005.41 1006.02 1006.13 1006.08 1005.73 1005.22 1004.64 1004.48 1004.24 1003.77 1002.63 1002.09 1002.31 1002.31 1002.12 1002.28 1002.62 1002.68 1003.18 1004.84 1006.37 1005.94 1006.85 1007.94 1008.69 1009.83 1010.37 1010.83 1011.10
1019.22 1018.64 1017.92 1016.94 1015.92 1015.20 1014.15 1013.17 1012.41 1011.93 1011.89 1012.06 1011.99 1010.52 1006.43 1005.73 1005.49 1005.74 1005.69 1005.54 1005.72 1005.41 1005.24 1004.93 1004.70 1004.02 1002.91 1002.33 1002.42 1002.16 1001.60 1001.41 1001.95 1002.34 1002.53 1003.93 1004.68 1006.23 1006.32 1007.49 1009.15 1010.20 1011.12 1011.69 1011.99
1019.20 1018.53 1017.87 1016.95 1015.84 1014.45 1013.43 1012.65 1012.15 1011.72 1012.11 1012.17 1011.40 1009.28 1005.74 1006.58 1005.82 1005.26 1005.24 1004.92 1005.22 1005.18 1005.12 1005.28 1004.87 1003.62 1002.66 1002.11 1001.28 1001.19 1000.34 1000.57 1001.73 1002.20 1001.73 1002.77 1004.73 1005.74 1006.01 1007.33 1009.29 1010.51 1011.50 1012.08 1012.56
1019.07 1018.50 1017.58 1016.88 1015.79 1014.33 1013.15 1012.44 1012.05 1012.01 1011.96 1010.91 1009.68 1008.27 1005.67 1005.01 1004.74 1004.75 1004.94 1004.93 1004.75 1004.61 1004.54 1004.60 1003.93 1002.53 1001.75 1000.60 999.31 999.35 999.58 999.89 1000.67 1001.74 1002.28 1000.96 1004.29 1005.73 1006.54 1007.71 1009.37 1010.46 1011.49 1012.35 1012.90
1019.07 1018.33 1017.42 1016.61 1015.31 1014.46 1012.88 1011.21 1011.34 1011.12 1009.09 1008.33 1007.42 1006.52 1004.93 1004.81 1005.13 1004.85 1004.82 1005.06 1004.63 1004.11 1003.21 1002.97 1002.03 1000.57 999.93 1000.03 999.91 999.69 999.73 1000.06 1001.38 1002.08 1002.21 1002.77 1005.00 1006.29 1007.19 1008.18 1009.37 1010.38 1011.56 1012.58 1013.01
1019.13 1018.40 1017.57 1016.51 1015.40 1014.20 1012.57 1011.25 1012.65 1012.52 1009.90 1007.04 1006.83 1006.31 1005.55 1005.12 1004.40 1004.07 1004.33 1004.24 1003.88 1002.73 1002.11 1001.74 1000.81 1000.32 1000.81 1000.78 1000.41 1000.05 1000.00 1000.77 1002.15 1002.95 1002.92 1003.50 1004.69 1006.59 1007.64 1008.29 1009.20 1010.10 1011.13 1012.11 1012.84
1019.06 1018.56 1017.71 1016.46 1014.93 1013.79 1012.62 1012.35 1012.32 1011.93 1010.06 1006.22 1005.93 1005.28 1004.59 1004.60 1003.46 1003.54 1003.99 1003.42 1002.72 1001.64 1001.41 1000.21 1000.33 1001.28 1001.05 1000.79 1000.45 1000.15 1000.08 1001.21 1001.45 1002.57 1002.73 1003.00 1004.55 1007.37 1007.33 1008.76 1009.56 1010.24 1010.93 1011.56 1012.24
1018.96 1018.40 1017.90 1016.30 1015.01 1014.24 1012.32 1012.28 1011.83 1011.99 1009.05 1005.64 1005.10 1004.70 1004.05 1003.63 1003.16 1003.01 1003.39 1002.80 1001.99 1001.11 1000.74 1000.16 1001.16 1001.30 1000.90 1000.59 1000.80 1000.17 1000.96 1001.43 1001.82 1002.25 1002.24 1004.08 1004.96 1006.86 1006.52 1007.97 1008.98 1010.24 1011.03 1011.51 1012.38
1018.95 1018.30 1017.77 1017.58 1016.01 1013.54 1013.06 1012.38 1012.02 1011.88 1006.86 1004.29 1003.81 1003.61 1003.03 1002.81 1002.45 1003.18 1003.13 1002.78 1001.60 1001.20 1001.05 1000.37 1001.16 1001.11 1000.68 1001.08 1001.31 1001.34 1001.45 1001.63 1001.74 1001.88 1001.93 1002.38 1004.06 1006.60 1008.35 1008.14 1009.34 1010.14 1010.56 1011.15 1012.09
1018.61 1018.32 1017.52 1015.40 1015.25 1013.65 1013.16 1013.08 1011.88 1009.86 1004.96 1003.82 1003.31 1003.28 1002.97 1002.68 1002.32 1002.50 1002.96 1002.85 1001.93 1001.31 1001.09 1000.77 1001.35 1001.03 1000.82 1001.73 1001.70 1001.80 1001.81 1001.67 1001.67 1001.44 1001.67 1004.25 1004.21 1007.99 1009.00 1009.08 1009.54 1010.70 1010.91 1011.03 1011.88
1018.25 1017.71 1017.82 1016.27 1013.70 1013.48 1013.22 1012.12 1009.72 1006.21 1003.75 1003.67 1003.06 1002.66 1002.44 1002.34 1002.26 1002.32 1002.32 1002.11 1001.36 1001.14 1000.74 1001.11 1001.15 1001.36 1001.66 1001.32 1001.59 1001.57 1001.38 1000.73 1001.14 1000.97 1001.27 1003.52 1003.65 1005.92 1007.42 1007.93 1008.64 1010.30 1011.44 1011.68 1012.14
1017.69 1016.99 1015.41 1014.85 1013.76 1013.36 1012.84 1010.99 1007.83 1004.23 1003.06 1002.90 1002.52 1002.58 1002.12 1002.16 1002.14 1002.04 1001.86 1001.40 1001.44 1000.81 1000.13 1000.39 1000.87 1001.26 1001.60 1001.19 1000.80 1001.24 1001.48 1001.16 1000.94 1000.68 1001.09 1002.68 1004.23 1006.48 1007.42 1008.04 1008.75 1009.82 1011.40 1012.10 1012.89
1017.41 1014.42 1013.08 1012.98 1013.22 1013.45 1012.00 1009.19 1005.00 1003.68 1003.48 1003.12 1002.49 1002.01 1001.94 1002.18 1002.01 1001.81 1001.69 1001.17 1001.33 1001.45 1000.86 1000.27 1000.67 1001.71 1001.99 1001.95 1001.93 1001.53 1001.37 1002.46 1002.68 1002.03 1002.23 1003.58 1005.72 1006.86 1007.78 1008.68 1009.37 1009.96 1011.52 1012.39 1012.90
1016.99 1014.15 1012.12 1012.64 1013.15 1012.58 1010.73 1008.16 1005.49 1004.84 1004.54 1003.51 1002.45 1002.03 1002.00 1002.14 1001.74 1001.41 1001.63 1002.40 1002.54 1002.61 1002.10 1001.30 1001.38 1001.83 1002.25 1002.48 1002.27 1002.32 1002.62 1002.50 1002.49 1002.61 1002.95 1003.05 1005.74 1008.09 1008.90 1009.53 1010.19 1010.71 1011.71 1012.72 1013.47
1016.65 1013.01 1012.13 1012.20 1012.82 1011.38 1009.11 1006.70 1005.91 1005.17 1004.94 1003.90 1002.59 1002.32 1002.07 1002.03 1001.43 1001.17 1001.94 1003.34 1003.46 1002.87 1002.61 1002.21 1002.53 1002.13 1002.54 1002.15 1001.98 1002.29 1002.24 1003.32 1004.09 1004.22 1004.45 1004.82 1007.88 1009.75 1010.38 1010.93 1011.18 1011.48 1012.35 1013.08 1013.54
1015.41 1012.03 1011.36 1011.83 1011.11 1009.50 1008.56 1006.94 1006.89 1005.37 1004.83 1004.22 1003.70 1002.57 1002.00 1001.99 1001.57 1001.78 1002.60 1003.17 1004.42 1003.96 1003.07 1003.99 1003.40 1002.39 1002.87 1003.62 1003.63 1003.90 1004.05 1004.46 1004.67 1004.75 1005.18 1006.38 1009.36 1010.90 1011.29 1011.69 1012.21 1012.44 1013.08 1013.67 1013.96
1014.15 1011.26 1010.82 1011.35 1009.57 1008.34 1007.67 1007.31 1006.59 1005.58 1004.84 1004.22 1003.71 1002.93 1002.52 1002.29 1002.18 1002.49 1003.58 1004.79 1004.76 1004.52 1004.78 1004.87 1004.26 1003.66 1003.71 1004.16 1004.49 1004.52 1005.30 1005.80 1006.18 1006.54 1006.08 1007.12 1009.59 1011.17 1011.81 1012.20 1012.63 1013.18 1013.70 1014.09 1014.48
1014.30 1010.91 1010.04 1010.35 1009.38 1009.05 1007.79 1007.22 1006.30 1005.56 1005.59 1004.84 1003.71 1003.57 1002.85 1002.50 1002.66 1003.00 1004.07 1005.03 1005.33 1005.84 1006.27 1005.95 1005.46 1004.98 1004.40 1004.63 1004.58 1005.63 1006.13 1006.49 1006.55 1006.70 1006.80 1008.15 1009.49 1010.69 1011.83 1012.74 1013.34 1013.86 1014.33 1014.80 1015.29
1014.17 1010.91 1010.01 1008.71 1008.38 1008.53 1008.53 1007.49 1006.52 1005.40 1005.40 1004.89 1003.97 1003.29 1003.01 1002.62 1002.61 1002.93 1003.96 1005.09 1005.85 1006.62 1006.41 1006.20 1005.90 1005.76 1005.68 1005.79 1005.91 1006.54 1007.08 1007.42 1007.68 1008.23 1008.43 1009.56 1010.38 1012.20 1013.19 1013.86 1014.27 1014.74 1015.33 1016.02 1016.45
1013.17 1011.70 1010.60 1009.33 1009.04 1008.74 1008.42 1007.43 1006.73 1005.69 1005.39 1004.50 1004.00 1003.08 1002.84 1002.54 1002.57 1003.05 1004.02 1004.52 1005.24 1006.13 1006.47 1006.77 1006.55 1006.55 1006.57 1006.80 1007.11 1007.59 1008.22 1008.65 1008.99 1009.19 1009.55 1010.31 1011.65 1013.11 1013.78 1014.49 1015.00 1015.62 1016.60 1017.17 1017.65
1013.38 1013.03 1012.02 1009.15 1008.75 1008.23 1007.37 1007.53 1006.86 1007.00 1005.72 1004.76 1003.56 1003.11 1002.93 1002.66 1003.00 1003.56 1004.59 1005.29 1005.62 1006.05 1006.62 1006.84 1006.87 1006.87 1006.92 1007.39 1007.78 1008.30 1009.15 1009.54 1009.87 1010.63 1010.95 1011.36 1013.02 1013.80 1014.39 1015.20 1015.59 1016.74 1017.74 1018.53 1019.34
Thickness
5706 5712 5718 5727 5732 5737 5743 5751 5755 5763 5768 5774 5778 5784 5788 5793 5800 5806 5818 5826 5830 5827 5828 5835 5831 5830 5837 5835 5840 5847 5831 5840 5828 5828 5830 5846 5844 5858 5863 5840 5832 5828 5817 5818 5825
5705 5709 5714 5721 5728 5735 5741 5748 5757 5763 5770 5775 5779 5783 5787 5792 5807 5822 5825 5828 5827 5826 5831 5829 5823 5829 5825 5833 5837 5829 5838 5830 5833 5834 5829 5836 5832 5837 5838 5817 5822 5816 5818 5823 5826
5696 5702 5708 5714 5724 5733 5739 5748 5755 5763 5771 5777 5780 5783 5787 5791 5808 5829 5828 5826 5824 5825 5841 5845 5842 5831 5828 5838 5835 5837 5826 5832 5830 5832 5838 5831 5820 5826 5816 5797 5802 5798 5807 5812 5805
5694 5701 5706 5713 5722 5731 5741 5747 5756 5763 5772 5778 5781 5783 5786 5798 5800 5833 5829 5824 5823 5827 5834 5833 5832 5822 5824 5819 5839 5820 5831 5830 5832 5836 5834 5820 5819 5804 5801 5792 5802 5803 5804 5800 5794
5691 5697 5704 5710 5719 5729 5737 5745 5753 5764 5776 5779 5781 5783 5789 5805 5822 5831 5828 5824 5825 5828 5830 5832 5826 5830 5820 5832 5830 5823 5827 5828 5830 5829 5825 5822 5806 5799 5794 5801 5801 5798 5795 5787 5782
5685 5691 5700 5707 5715 5725 5735 5745 5757 5769 5777 5778 5781 5781 5796 5797 5841 5835 5835 5828 5832 5833 5834 5841 5835 5840 5832 5829 5823 5835 5826 5824 5827 5823 5822 5808 5806 5800 5791 5794 5781 5777 5775 5771 5765
5682 5689 5698 5707 5716 5725 5735 5748 5762 5768 5774 5777 5780 5787 5801 5812 5843 5838 5837 5834 5840 5839 5830 5839 5838 5827 5835 5823 5837 5829 5812 5821 5820 5821 5814 5801 5768 5784 5790 5786 5776 5769 5767 5763 5758
5679 5686 5694 5704 5715 5724 5737 5750 5760 5767 5771 5774 5778 5791 5805 5835 5839 5835 5838 5834 5839 5842 5837 5840 5839 5828 5828 5839 5825 5811 5821 5800 5820 5821 5827 5809 5750 5786 5797 5785 5768 5763 5756 5750 5747
5676 5684 5691 5700 5711 5727 5740 5749 5758 5764 5764 5770 5779 5792 5801 5827 5819 5835 5839 5827 5831 5835 5837 5835 5829 5820 5827 5809 5808 5815 5807 5815 5807 5825 5829 5817 5766 5790 5800 5785 5764 5756 5748 5743 5737
5674 5681 5690 5697 5708 5724 5736 5746 5753 5758 5763 5773 5786 5783 5811 5807 5827 5833 5840 5834 5823 5825 5819 5817 5815 5810 5817 5821 5811 5818 5819 5828 5812 5818 5817 5812 5787 5787 5789 5777 5759 5752 5745 5736 5729
5670 5679 5688 5696 5708 5715 5735 5752 5757 5755 5777 5774 5786 5789 5809 5824 5831 5823 5832 5821 5823 5817 5801 5818 5805 5810 5835 5836 5836 5834 5829 5821 5814 5820 5816 5805 5777 5775 5778 5768 5754 5748 5739 5729 5726
5666 5674 5683 5693 5702 5713 5728 5735 5728 5733 5742 5787 5789 5793 5808 5817 5804 5819 5834 5808 5807 5800 5819 5813 5804 5832 5833 5830 5825 5827 5822 5809 5804 5805 5804 5793 5779 5773 5771 5764 5758 5748 5739 5730 5725
5664 5669 5678 5689 5703 5714 5721 5723 5733 5741 5738 5779 5790 5794 5803 5814 5807 5810 5822 5818 5808 5810 5813 5821 5825 5828 5822 5818 5815 5823 5820 5802 5803 5800 5805 5796 5761 5730 5771 5761 5755 5749 5742 5735 5726
5660 5668 5674 5689 5697 5707 5718 5726 5736 5739 5735 5766 5778 5791 5806 5815 5800 5832 5831 5823 5815 5811 5821 5829 5827 5816 5815 5814 5817 5809 5823 5811 5800 5788 5770 5790 5761 5734 5764 5751 5753 5741 5736 5730 5721
5657 5666 5672 5677 5687 5701 5712 5725 5733 5730 5728 5779 5784 5820 5817 5805 5814 5810 5835 5822 5808 5812 5818 5814 5809 5808 5810 5807 5817 5800 5819 5809 5805 5794 5798 5802 5780 5762 5729 5729 5740 5737 5737 5730 5720
5655 5661 5673 5689 5691 5705 5711 5717 5726 5717 5728 5762 5787 5786 5790 5802 5808 5818 5813 5827 5830 5816 5820 5819 5831 5825 5820 5816 5817 5818 5807 5807 5806 5801 5779 5742 5783 5718 5707 5727 5732 5726 5729 5724 5717
5654 5663 5666 5679 5698 5708 5711 5716 5714 5725 5777 5757 5769 5789 5790 5788 5796 5802 5798 5797 5796 5783 5790 5805 5808 5821 5822 5805 5816 5810 5797 5780 5766 5772 5773 5781 5784 5756 5759 5762 5750 5727 5715 5717 5710
5655 5665 5681 5687 5699 5705 5708 5709 5702 5757 5764 5783 5783 5784 5778 5792 5794 5798 5797 5793 5811 5813 5812 5793 5777 5807 5818 5812 5810 5805 5799 5780 5753 5772 5786 5797 5758 5741 5766 5766 5758 5740 5719 5712 5700
5652 5682 5692 5699 5701 5703 5703 5699 5742 5758 5767 5765 5777 5772 5776 5787 5792 5795 5795 5800 5808 5812 5794 5800 5791 5814 5813 5816 5813 5799 5793 5800 5772 5792 5779 5766 5759 5762 5759 5746 5744 5732 5714 5703 5696
5650 5674 5691 5697 5697 5701 5699 5699 5734 5758 5760 5769 5758 5778 5762 5776 5785 5794 5791 5797 5791 5804 5815 5807 5779 5805 5804 5812 5813 5800 5805 5775 5786 5748 5743 5782 5747 5716 5728 5727 5726 5717 5705 5694 5686
5648 5671 5689 5696 5695 5697 5695 5722 5734 5757 5758 5758 5769 5768 5776 5775 5793 5796 5787 5786 5793 5799 5810 5806 5789 5789 5799 5793 5792 5794 5793 5781 5772 5766 5741 5744 5716 5730 5720 5718 5710 5708 5697 5686 5678
5651 5663 5692 5695 5684 5704 5698 5724 5721 5747 5761 5762 5769 5777 5780 5785 5787 5786 5777 5786 5789 5795 5789 5790 5786 5781 5779 5792 5798 5787 5775 5771 5748 5750 5760 5745 5702 5725 5720 5713 5706 5697 5687 5677 5670
5646 5673 5693 5690 5682 5699 5714 5716 5730 5739 5749 5757 5760 5777 5788 5779 5771 5782 5776 5781 5789 5787 5778 5782 5772 5757 5762 5775 5780 5769 5768 5764 5758 5751 5741 5726 5698 5723 5715 5706 5699 5687 5679 5670 5659
5642 5661 5681 5685 5698 5690 5702 5706 5719 5746 5741 5755 5765 5773 5776 5774 5784 5771 5766 5773 5783 5775 5759 5775 5765 5757 5749 5754 5770 5748 5753 5757 5752 5735 5740 5724 5715 5711 5704 5692 5687 5678 5670 5659 5647
5638 5658 5673 5680 5692 5694 5697 5709 5714 5728 5744 5754 5755 5766 5768 5761 5770 5769 5771 5766 5770 5754 5768 5770 5749 5759 5762 5764 5762 5750 5744 5743 5735 5733 5720 5715 5709 5695 5689 5681 5677 5671 5659 5645 5635
5634 5646 5667 5679 5687 5689 5686 5704 5712 5730 5736 5742 5747 5769 5775 5768 5774 5763 5766 5767 5762 5767 5761 5764 5743 5752 5743 5753 5749 5735 5736 5733 5729 5728 5725 5716 5694 5697 5691 5683 5671 5661 5648 5637 5629
5630 5644 5650 5677 5683 5687 5700 5702 5714 5719 5737 5751 5762 5768 5767 5776 5785 5785 5779 5774 5771 5761 5752 5752 5747 5740 5726 5743 5738 5720 5723 5723 5723 5720 5713 5697 5689 5690 5680 5670 5665 5652 5642 5629 5617